[[{"header":{"parameterUnit":"m.s-1","parameterCategory":1,"la1":30.2991,"la2":30.254,"lo1":-89.0895,"lo2":-89.0444,"dy":0.0017,"dx":0.0017,"nx":28,"ny":28,"refTime":"2024-02-05T03:00:00:Z","depth":0,"parameterNumber":2,"parameterNumberName":"U-component_of_WINDS"},"data":[0,0,0,0,0,0,0,0,0,0,0,0,0,0,0,0,0,0,0,0,0,0,0,0,0,0,0,0,0,0,0,0,0,0,0,0,0,0,0,0,0,0,0,0,0,0,0,0,0,0,0,0,0,0,0,0,0,0,-0.1476,-0.1477,0,-0.156,-0.156,-0.1561,-0.1596,-0.1595,-0.1595,-0.1595,-0.1682,-0.1685,-0.1687,0,0,0,0,0,0,0,0,0,0,0,0,0,-0.1347,-0.1349,-0.1476,-0.1477,-0.1478,-0.1559,-0.1561,-0.1562,-0.1596,-0.1595,-0.1595,-0.1595,-0.1682,-0.1684,-0.1687,0,0,0,0,0,0,0,0,0,0,0,0,0,-0.1414,-0.135,-0.1476,-0.1505,-0.1508,-0.1559,-0.1561,-0.1562,-0.1596,-0.1595,-0.1595,-0.1595,-0.1681,-0.1684,-0.1688,-0.1717,0,0,-0.1699,-0.1701,0,0,0,0,0,0,0,0,-0.141,-0.1419,-0.1499,-0.1503,-0.1507,-0.1567,-0.1547,-0.1614,-0.1596,-0.1562,-0.1595,-0.1595,-0.1644,-0.1651,-0.1667,-0.1721,-0.1725,-0.17,-0.1702,-0.1704,-0.1705,0,0,0,0,0,0,0,-0.1406,-0.1415,-0.1509,-0.1501,-0.1505,-0.1514,-0.1523,-0.156,-0.1604,-0.1565,-0.1568,-0.1577,-0.1646,-0.1664,-0.167,-0.1726,-0.17,-0.1703,-0.1705,-0.1707,-0.1807,-0.1808,0,0,0,0,0,0,-0.1396,-0.1411,-0.1506,-0.1512,-0.1457,-0.1517,-0.1527,-0.1548,-0.1604,-0.1612,-0.1577,-0.1579,-0.1657,-0.1665,-0.1673,-0.171,-0.1704,-0.1707,-0.1709,-0.1807,-0.1807,-0.1808,0,0,0,0,0,0,-0.1393,-0.1404,-0.1503,-0.1462,-0.1476,-0.1519,-0.1542,-0.155,-0.1567,-0.1613,-0.1621,-0.1587,-0.1657,-0.1668,-0.1705,-0.1714,-0.1709,-0.1712,-0.1806,-0.1807,-0.1808,-0.1786,0,0,0,0,0,0,-0.1389,-0.1403,-0.1414,-0.1462,-0.1478,-0.1534,-0.1543,-0.1551,-0.1573,-0.1576,-0.1624,-0.1632,-0.1658,-0.17,-0.1709,-0.1719,-0.1715,-0.1806,-0.1807,-0.1807,-0.1786,-0.1785,-0.1785,0,0,0,0,0,-0.1385,-0.1405,-0.1415,-0.1426,-0.1492,-0.1534,-0.1543,-0.1572,-0.1574,-0.1586,-0.1615,-0.163,-0.1711,-0.1703,-0.1714,-0.1725,-0.1805,-0.1806,-0.1807,-0.1786,-0.1785,-0.1785,0,0,0,0,0,0,-0.1358,-0.1412,-0.1423,-0.146,-0.1492,-0.154,-0.1556,-0.1571,-0.1604,-0.1605,-0.164,-0.1651,-0.1686,-0.1709,-0.1699,-0.1756,-0.176,-0.1763,-0.174,-0.1739,-0.1739,-0.1733,-0.1718,0,0,0,0,0,-0.1356,-0.1385,-0.1431,-0.1459,-0.1474,-0.1512,-0.1531,-0.1551,-0.1586,-0.16,-0.1632,-0.1666,-0.17,-0.1721,-0.1754,-0.1789,-0.18,-0.1802,-0.1802,-0.1801,-0.1804,-0.1824,-0.1825,-0.1811,-0.1811,-0.1811,0,0,-0.1353,-0.1386,-0.1402,-0.1454,-0.1482,-0.1511,-0.1523,-0.1554,-0.1577,-0.1605,-0.1643,-0.1667,-0.1708,-0.1744,-0.1762,-0.1765,-0.181,-0.1802,-0.1802,-0.1805,-0.1825,-0.1826,-0.1828,-0.1812,-0.1811,-0.1811,0,0,-0.1362,-0.139,-0.1416,-0.1443,-0.1484,-0.1509,-0.1515,-0.1561,-0.1578,-0.1616,-0.1638,-0.1665,-0.1721,-0.1749,-0.1771,-0.1789,-0.1805,-0.1799,-0.1798,-0.1817,-0.1818,-0.1819,-0.1826,-0.1828,-0.1802,-0.1801,-0.1801,0,-0.1353,-0.1398,-0.1428,-0.1458,-0.148,-0.1506,-0.1533,-0.1558,-0.1607,-0.1622,-0.1625,-0.1696,-0.1725,-0.1768,-0.1772,-0.1789,-0.1797,-0.1794,-0.1816,-0.1817,-0.1819,-0.1826,-0.1828,-0.1801,-0.1801,-0.1801,-0.1801,0,-0.1386,-0.1416,-0.1433,-0.1479,-0.1503,-0.1531,-0.1566,-0.1586,-0.1603,-0.1628,-0.1666,-0.1702,-0.1742,-0.1754,-0.1771,-0.18,-0.18,-0.1809,-0.1813,-0.1819,-0.1826,-0.1829,-0.1799,-0.18,-0.18,-0.18,0,0,-0.1381,-0.1443,-0.1449,-0.147,-0.1517,-0.1542,-0.1571,-0.161,-0.1627,-0.166,-0.1686,-0.1732,-0.174,-0.1764,-0.1785,-0.1802,-0.1814,-0.1808,-0.1809,-0.1808,-0.1848,-0.1842,-0.1844,-0.1824,-0.1825,-0.1826,-0.1845,0,-0.1397,-0.145,-0.1477,-0.1519,-0.1548,-0.1573,-0.1598,-0.1629,-0.1653,-0.1681,-0.1708,-0.174,-0.1748,-0.1762,-0.178,-0.1809,-0.1823,-0.1808,-0.1849,-0.185,-0.1839,-0.1848,-0.1842,-0.1858,-0.1848,-0.1848,-0.1848,0,-0.1423,-0.1456,-0.15,-0.1543,-0.1556,-0.1578,-0.1616,-0.1642,-0.1678,-0.1694,-0.1721,-0.1741,-0.1773,-0.1774,-0.1819,-0.1808,-0.1826,-0.1843,-0.1844,-0.185,-0.185,-0.1854,-0.1864,-0.1867,-0.1853,-0.1853,-0.1852,0,-0.1416,-0.1471,-0.1504,-0.1521,-0.1572,-0.1587,-0.1609,-0.1645,-0.1667,-0.1699,-0.1714,-0.175,-0.177,-0.1798,-0.1827,-0.1825,-0.1869,-0.1873,-0.1883,-0.1883,-0.1892,-0.1891,-0.1905,-0.1903,-0.1903,-0.1903,-0.1903,0,-0.1432,-0.1458,-0.1501,-0.1522,-0.1552,-0.1583,-0.1612,-0.1635,-0.1667,-0.1693,-0.1716,-0.174,-0.1777,-0.1806,-0.1829,-0.1862,-0.1871,-0.1885,-0.1891,-0.1883,-0.1882,-0.1896,-0.1896,-0.1904,-0.1903,-0.1903,-0.1903,0,-0.1429,-0.1459,-0.1497,-0.1542,-0.1553,-0.1574,-0.1612,-0.1633,-0.1657,-0.169,-0.1699,-0.1738,-0.1772,-0.1804,-0.185,-0.1866,-0.19,-0.1907,-0.1887,-0.1891,-0.19,-0.1899,-0.1925,-0.193,-0.1923,-0.1923,-0.1923,0,-0.1437,-0.1457,-0.1504,-0.1523,-0.1544,-0.1574,-0.1596,-0.1627,-0.1648,-0.1691,-0.1707,-0.1743,-0.1774,-0.1828,-0.186,-0.1896,-0.1904,-0.1911,-0.191,-0.1901,-0.1905,-0.1903,-0.1906,-0.1911,-0.1911,-0.191,-0.191,0,-0.1448,-0.1462,-0.1492,-0.1527,-0.1552,-0.1582,-0.1612,-0.1626,-0.1663,-0.1686,-0.1722,-0.1745,-0.1792,-0.1828,-0.1867,-0.189,-0.1906,-0.191,-0.1915,-0.1907,-0.1895,-0.1902,-0.1887,-0.191,-0.191,-0.191,-0.191,-0.191,-0.1451,-0.1471,-0.1506,-0.1539,-0.1565,-0.1592,-0.1614,-0.1641,-0.1671,-0.1711,-0.1727,-0.1763,-0.1799,-0.1852,-0.1875,-0.1904,-0.1907,-0.1914,-0.1915,-0.1917,-0.1915,-0.189,-0.1911,-0.1911,-0.1911,-0.1911,-0.1911,0,-0.1464,-0.1488,-0.1517,-0.1559,-0.1584,-0.1597,-0.1631,-0.1651,-0.1683,-0.1714,-0.1743,-0.1784,-0.1818,-0.1853,-0.1889,-0.1906,-0.1914,-0.1914,-0.1914,-0.1919,-0.191,-0.1903,-0.1907,-0.1907,-0.1907,-0.1907,-0.1907,-0.1907,-0.1473,-0.1507,-0.1524,-0.1571,-0.1595,-0.163,-0.1648,-0.1673,-0.1699,-0.1743,-0.1771,-0.1793,-0.1826,-0.1865,-0.1897,-0.1906,-0.1919,-0.1917,-0.1928,-0.192,-0.192,-0.192,-0.1913,-0.1919,-0.1919,-0.1935,-0.1935,-0.1935]},{"header":{"parameterUnit":"m.s-1","parameterCategory":1,"la1":30.2991,"la2":30.254,"lo1":-89.0895,"lo2":-89.0444,"dy":0.0017,"dx":0.0017,"nx":28,"ny":28,"refTime":"2024-02-05T03:00:00:Z","depth":0,"parameterNumber":3,"parameterNumberName":"V-component_of_WINDS"},"data":[0,0,0,0,0,0,0,0,0,0,0,0,0,0,0,0,0,0,0,0,0,0,0,0,0,0,0,0,0,0,0,0,0,0,0,0,0,0,0,0,0,0,0,0,0,0,0,0,0,0,0,0,0,0,0,0,0,0,-8.1713,-8.1715,0,-8.1848,-8.1849,-8.1851,-8.1776,-8.1773,-8.1769,-8.1766,-8.1896,-8.1903,-8.191,0,0,0,0,0,0,0,0,0,0,0,0,0,-8.1388,-8.1394,-8.1713,-8.1715,-8.1717,-8.1847,-8.1849,-8.1851,-8.1777,-8.1773,-8.1768,-8.1764,-8.1894,-8.1902,-8.191,0,0,0,0,0,0,0,0,0,0,0,0,0,-8.1526,-8.1396,-8.1713,-8.1696,-8.1696,-8.1847,-8.1849,-8.1851,-8.1778,-8.1773,-8.1767,-8.1762,-8.1891,-8.1901,-8.1912,-8.2085,0,0,-8.1943,-8.1948,0,0,0,0,0,0,0,0,-8.1518,-8.1538,-8.1697,-8.1697,-8.1697,-8.179,-8.1782,-8.193,-8.1779,-8.1747,-8.1766,-8.1759,-8.1865,-8.1877,-8.1914,-8.2092,-8.2097,-8.1944,-8.195,-8.1955,-8.1958,0,0,0,0,0,0,0,-8.1509,-8.1532,-8.1766,-8.1699,-8.1699,-8.1679,-8.1693,-8.181,-8.1835,-8.1749,-8.1744,-8.1761,-8.1864,-8.1904,-8.1917,-8.2099,-8.1944,-8.1953,-8.1959,-8.1963,-8.2428,-8.2433,0,0,0,0,0,0,-8.1501,-8.1524,-8.1762,-8.177,-8.1593,-8.169,-8.1705,-8.1765,-8.1833,-8.1838,-8.1766,-8.1757,-8.1889,-8.1905,-8.1921,-8.2131,-8.1955,-8.1964,-8.197,-8.2421,-8.2429,-8.2435,0,0,0,0,0,0,-8.1494,-8.1523,-8.1756,-8.1646,-8.1674,-8.1701,-8.177,-8.1771,-8.1811,-8.1846,-8.1849,-8.1803,-8.1886,-8.1906,-8.2046,-8.2134,-8.1969,-8.1978,-8.2414,-8.2424,-8.2432,-8.2551,0,0,0,0,0,0,-8.1485,-8.1521,-8.1589,-8.1648,-8.1681,-8.1881,-8.1775,-8.1778,-8.183,-8.182,-8.1882,-8.1887,-8.1883,-8.2031,-8.2056,-8.2145,-8.1987,-8.2406,-8.2418,-8.2429,-8.2539,-8.2563,-8.2583,0,0,0,0,0,-8.1474,-8.1615,-8.1592,-8.1622,-8.1766,-8.1887,-8.1905,-8.19,-8.1838,-8.1905,-8.1928,-8.1885,-8.212,-8.2046,-8.2074,-8.2167,-8.2401,-8.2415,-8.2428,-8.2529,-8.2558,-8.2582,0,0,0,0,0,0,-8.1562,-8.1622,-8.1598,-8.1763,-8.1821,-8.1874,-8.1959,-8.193,-8.2005,-8.1992,-8.198,-8.1995,-8.2141,-8.2167,-8.2084,-8.234,-8.2251,-8.2271,-8.2317,-8.2345,-8.2367,-8.2358,-8.1995,0,0,0,0,0,-8.1601,-8.1696,-8.1742,-8.1883,-8.1913,-8.1932,-8.1984,-8.1975,-8.2034,-8.2057,-8.2089,-8.2146,-8.2233,-8.229,-8.2372,-8.2542,-8.2554,-8.262,-8.2642,-8.266,-8.2677,-8.2771,-8.2801,-8.2481,-8.2481,-8.248,0,0,-8.1681,-8.1726,-8.1786,-8.1902,-8.1945,-8.2043,-8.1952,-8.2059,-8.2131,-8.2072,-8.2208,-8.2234,-8.2296,-8.2452,-8.2522,-8.2479,-8.2769,-8.2677,-8.2691,-8.2699,-8.2788,-8.2818,-8.2845,-8.249,-8.2488,-8.2487,0,0,-8.1878,-8.1922,-8.2045,-8.2091,-8.216,-8.2171,-8.2201,-8.226,-8.2276,-8.2412,-8.2371,-8.2454,-8.2604,-8.2651,-8.2694,-8.2911,-8.2875,-8.2938,-8.3053,-8.3144,-8.317,-8.3192,-8.3271,-8.3299,-8.2955,-8.2955,-8.2956,0,-8.1969,-8.2117,-8.211,-8.2222,-8.2274,-8.2228,-8.2353,-8.2397,-8.2488,-8.2524,-8.2474,-8.2663,-8.2701,-8.2869,-8.2922,-8.2958,-8.2991,-8.2931,-8.3167,-8.3189,-8.321,-8.3285,-8.3314,-8.2963,-8.2962,-8.2961,-8.296,0,-8.2226,-8.2329,-8.2419,-8.2512,-8.2574,-8.2691,-8.2701,-8.2765,-8.2751,-8.2767,-8.2907,-8.2951,-8.3043,-8.3081,-8.3067,-8.3248,-8.3219,-8.3168,-8.3078,-8.3248,-8.3318,-8.3347,-8.2973,-8.2971,-8.2968,-8.2967,0,0,-8.2481,-8.2571,-8.2605,-8.2647,-8.272,-8.2799,-8.2913,-8.3005,-8.306,-8.3124,-8.322,-8.3349,-8.3303,-8.3353,-8.3343,-8.3423,-8.3595,-8.3363,-8.3364,-8.3406,-8.3797,-8.3836,-8.387,-8.3571,-8.3576,-8.358,-8.3793,0,-8.2684,-8.2888,-8.2887,-8.3074,-8.317,-8.3129,-8.3228,-8.3283,-8.3302,-8.3384,-8.3403,-8.3495,-8.3428,-8.3458,-8.3535,-8.3558,-8.3673,-8.3542,-8.3659,-8.3663,-8.3647,-8.3906,-8.3947,-8.4145,-8.382,-8.3825,-8.3828,0,-8.2949,-8.3026,-8.3224,-8.3286,-8.3325,-8.3416,-8.3501,-8.358,-8.3641,-8.3649,-8.3706,-8.3685,-8.38,-8.3707,-8.3865,-8.3776,-8.3823,-8.3842,-8.3849,-8.3861,-8.3757,-8.3926,-8.4208,-8.4239,-8.3871,-8.3867,-8.3864,0,-8.3118,-8.327,-8.3409,-8.3446,-8.3521,-8.3586,-8.3619,-8.3675,-8.3731,-8.3804,-8.3841,-8.3925,-8.3972,-8.4037,-8.4039,-8.3971,-8.42,-8.4106,-8.4209,-8.421,-8.426,-8.4257,-8.4556,-8.4289,-8.4288,-8.4288,-8.4287,0,-8.3346,-8.3469,-8.3487,-8.3572,-8.3709,-8.3706,-8.384,-8.3867,-8.3918,-8.4007,-8.3975,-8.4059,-8.4056,-8.4141,-8.4143,-8.4275,-8.4295,-8.4304,-8.4303,-8.4308,-8.4308,-8.434,-8.4327,-8.4296,-8.4294,-8.4292,-8.4291,0,-8.3558,-8.3575,-8.3724,-8.3783,-8.3801,-8.39,-8.395,-8.4031,-8.4047,-8.416,-8.4186,-8.4211,-8.4309,-8.4318,-8.443,-8.4432,-8.4592,-8.4575,-8.4573,-8.457,-8.4674,-8.4665,-8.5004,-8.5049,-8.4752,-8.4755,-8.4757,0,-8.3703,-8.3798,-8.3869,-8.3928,-8.3966,-8.4061,-8.4119,-8.4119,-8.418,-8.4258,-8.433,-8.4426,-8.4502,-8.4661,-8.4688,-8.4774,-8.476,-8.4874,-8.4773,-8.4776,-8.4764,-8.4759,-8.4769,-8.4893,-8.4897,-8.4899,-8.4901,0,-8.396,-8.3964,-8.405,-8.4141,-8.4211,-8.4281,-8.4347,-8.4396,-8.4404,-8.4474,-8.4576,-8.4636,-8.4754,-8.4849,-8.4935,-8.4966,-8.4936,-8.4933,-8.4962,-8.4968,-8.4964,-8.4969,-8.4628,-8.4925,-8.4923,-8.4921,-8.492,-8.4919,-8.4144,-8.4227,-8.4291,-8.4388,-8.4438,-8.4501,-8.4581,-8.4608,-8.4694,-8.4792,-8.4786,-8.4899,-8.4958,-8.507,-8.5109,-8.5196,-8.5158,-8.5199,-8.5209,-8.522,-8.5232,-8.4949,-8.5211,-8.521,-8.521,-8.5209,-8.5209,0,-8.44,-8.444,-8.453,-8.4625,-8.4701,-8.4668,-8.4739,-8.4805,-8.4906,-8.4965,-8.5043,-8.516,-8.5253,-8.5288,-8.5379,-8.5442,-8.543,-8.5466,-8.5462,-8.547,-8.526,-8.5227,-8.5474,-8.5474,-8.5474,-8.5474,-8.5474,-8.5474,-8.4543,-8.4682,-8.4695,-8.4858,-8.4896,-8.5009,-8.5053,-8.511,-8.5158,-8.5292,-8.5371,-8.5394,-8.5443,-8.5537,-8.5621,-8.5629,-8.5664,-8.5706,-8.5708,-8.5511,-8.5485,-8.5459,-8.5428,-8.5713,-8.5714,-8.5911,-8.5913,-8.5914]}]]